Wind_Speed
38 40 40 39 41 41 41 41 40 39 39 41 41 40 39 40 41 40 40 39 39 39 39 38 37 37 36 35 34 34 34 34 34 34 34 34 33 33 33 33 33 33 33 33
38 40 38 39 40 41 41 41 40 40 40 41 41 40 40 40 40 41 40 40 39 39 39 38 38 37 36 35 35 35 34 34 34 34 34 34 33 33 33 33 33 33 33 33
37 38 38 39 40 41 41 41 40 39 40 41 41 41 40 40 40 41 41 40 40 39 39 39 38 38 37 36 36 36 35 34 34 34 34 34 33 33 33 33 33 33 34 34
35 37 38 39 39 40 40 40 41 40 40 40 41 42 40 40 40 40 40 39 39 39 39 39 39 38 37 37 36 36 36 35 34 34 34 34 33 33 33 33 33 34 35 35
34 36 37 39 38 39 39 40 40 41 41 41 41 42 40 40 40 39 39 39 39 39 39 39 39 38 38 38 37 36 36 35 35 34 33 33 33 33 33 34 34 34 35 35
33 34 36 37 38 38 39 39 39 40 41 43 41 41 40 39 38 38 38 39 39 39 39 39 39 39 38 38 38 37 36 35 35 34 34 33 33 33 34 34 34 35 35 36
30 33 34 36 37 38 38 39 38 40 42 43 40 41 39 37 36 37 38 38 38 38 38 38 38 38 38 38 37 36 36 35 35 35 34 33 33 33 34 34 35 36 36 36
28 30 32 34 36 37 37 38 38 39 41 41 41 41 39 38 37 36 36 38 38 38 37 37 37 37 38 38 37 36 35 35 35 35 34 34 33 34 34 35 36 36 36 36
27 28 29 31 33 35 35 36 36 37 40 40 41 41 39 38 37 36 35 36 37 37 37 37 37 37 37 38 37 36 36 36 35 35 35 34 34 34 35 36 36 36 36 36
26 26 27 29 31 34 34 34 35 36 38 39 40 39 38 37 36 36 36 35 36 37 37 37 37 37 37 37 37 36 36 36 35 35 35 35 35 35 35 35 35 35 36 36
26 27 27 28 30 31 34 35 35 35 36 37 38 38 36 35 35 35 35 35 35 36 37 37 37 37 37 37 37 37 36 36 36 36 36 36 36 35 35 34 34 34 35 35
25 27 28 28 29 30 31 34 35 35 35 35 36 35 34 34 33 33 34 34 34 35 36 36 36 37 37 37 37 37 37 37 37 37 36 36 35 35 35 34 34 34 35 35
25 26 28 29 30 31 32 32 34 36 36 35 35 34 32 32 32 32 32 33 34 34 35 35 36 37 37 38 38 37 37 37 37 37 37 36 36 35 35 36 36 35 35 36
25 26 27 29 29 30 31 32 33 34 35 35 34 32 31 31 31 32 33 33 34 34 34 35 35 36 37 37 38 37 37 37 37 37 37 36 36 36 36 36 36 36 36 36
25 25 25 27 27 29 30 31 32 34 34 34 33 33 31 31 31 31 32 33 34 35 35 35 35 36 36 37 38 37 37 37 37 37 36 36 36 36 36 36 36 36 36 36
24 24 24 25 26 27 29 30 31 33 34 34 34 33 31 31 32 31 32 33 33 34 35 36 35 35 36 37 37 37 37 37 37 37 36 36 36 36 36 37 37 37 37 37
23 23 23 24 24 26 27 28 30 31 32 33 33 31 31 30 31 31 31 32 33 33 35 36 36 35 35 36 36 36 37 37 37 37 36 36 37 37 37 36 36 36 37 37
21 21 23 24 25 26 26 27 28 29 30 31 31 30 30 29 30 32 32 32 33 33 34 35 35 35 35 35 35 36 36 36 36 36 37 37 37 37 37 37 37 37 37 38
22 22 23 25 26 25 25 27 28 28 28 30 30 30 30 30 31 31 31 32 32 33 34 35 35 35 35 35 35 35 35 36 36 36 36 37 36 36 36 36 37 37 38 38
23 24 25 26 26 25 24 25 27 28 28 28 29 29 30 30 30 30 31 31 31 32 33 34 34 35 36 35 35 35 34 35 35 35 36 36 36 36 36 36 37 37 38 38
22 23 25 26 26 26 25 25 26 27 27 27 27 28 29 30 30 30 31 31 32 32 33 33 33 34 34 35 35 35 34 34 35 35 36 36 36 36 36 36 36 37 37 38
21 23 24 24 25 25 24 25 25 25 25 26 26 27 28 29 30 31 31 32 32 33 32 33 33 33 34 34 34 34 34 34 34 35 35 35 35 35 35 36 36 36 37 37
19 21 22 23 23 23 24 24 25 25 25 26 26 27 28 28 30 31 31 32 32 33 33 33 33 33 33 34 34 34 34 34 34 34 34 34 34 34 35 35 36 36 37 37
18 19 21 22 22 22 23 23 25 26 26 26 26 27 27 27 29 30 31 32 32 32 33 33 34 34 33 34 34 35 34 34 34 34 34 33 33 34 34 34 35 35 36 36
17 18 20 21 21 21 22 22 23 25 26 26 26 26 26 26 26 27 29 31 32 32 32 32 34 35 34 34 34 34 35 35 34 34 34 34 34 33 34 34 34 34 34 34
17 17 18 18 19 21 21 21 22 23 25 25 25 25 25 25 25 26 27 29 30 31 31 31 32 33 34 34 34 34 34 35 34 34 34 34 34 34 34 34 34 33 33 32
Wind_Direction
235 235 235 236 235 235 235 235 235 235 235 236 236 235 233 234 234 234 235 235 236 236 236 237 237 238 240 242 243 245 246 248 250 252 253 255 257 258 259 260 261 263 265 266
236 235 234 235 235 234 234 234 235 235 236 238 237 236 234 234 234 234 235 236 236 236 237 237 238 239 240 242 244 245 246 248 250 252 253 255 256 258 259 261 263 264 266 267
239 236 234 234 234 234 233 234 234 235 237 238 238 237 234 234 235 235 235 235 236 237 238 238 239 239 240 242 244 245 246 248 250 251 253 255 257 259 260 262 263 265 267 268
237 235 233 233 234 234 234 234 234 234 237 238 238 238 235 235 235 235 236 236 236 237 238 238 239 240 241 242 244 245 246 248 249 251 253 256 257 259 261 262 263 265 267 269
237 235 233 232 232 233 234 234 234 235 236 238 238 240 237 236 235 235 236 236 237 237 238 238 239 240 241 242 243 245 246 247 249 252 254 256 257 259 261 263 264 266 268 269
238 236 234 233 232 232 233 234 234 234 236 237 237 241 239 238 236 235 236 237 237 238 238 238 239 240 241 242 243 245 246 247 249 251 254 256 258 259 261 263 265 267 268 270
237 235 234 233 233 231 231 232 233 235 235 237 236 239 240 239 237 236 236 237 237 238 238 239 240 241 242 242 243 244 246 247 248 251 253 255 258 260 262 265 266 267 269 270
236 234 234 234 233 233 232 232 234 237 238 238 238 239 238 238 238 237 236 237 237 238 238 238 239 240 241 241 242 243 244 246 248 250 253 255 258 261 263 265 267 268 268 270
236 234 234 234 233 233 231 231 233 238 240 241 239 239 238 237 238 237 237 236 237 238 238 238 239 240 240 241 241 242 244 246 248 250 253 256 259 262 264 266 267 268 269 271
236 234 232 233 234 232 231 231 231 235 238 239 239 240 240 238 239 239 239 239 237 238 238 238 238 238 239 240 241 242 244 246 248 251 254 256 259 262 264 265 266 267 269 271
237 236 233 232 231 232 230 230 231 234 237 240 242 241 241 241 241 241 240 239 238 237 237 236 237 238 239 240 241 242 244 246 249 251 254 257 259 261 263 264 266 267 269 272
237 238 236 234 233 233 233 233 233 234 235 238 242 243 242 242 241 241 241 239 237 236 236 235 236 237 239 240 241 243 244 246 249 251 254 256 258 260 262 264 266 269 271 273
237 238 239 237 234 233 232 232 233 234 237 239 241 243 243 242 240 240 239 237 236 235 235 236 237 237 238 240 242 244 246 247 249 251 254 255 257 259 261 264 267 269 272 274
238 239 241 242 242 238 235 233 234 235 238 239 240 241 243 242 240 239 238 236 235 234 235 237 238 239 240 240 242 244 246 248 250 251 253 255 257 259 262 265 268 270 273 276
236 239 240 240 241 239 236 234 235 235 237 239 239 240 241 241 240 240 239 237 236 236 236 238 239 240 241 242 243 245 246 248 250 251 253 255 258 260 262 265 268 271 273 276
234 238 239 239 239 237 236 235 237 238 239 240 240 239 239 240 239 239 238 238 238 237 237 237 238 239 241 243 244 245 247 249 250 251 253 255 257 260 263 265 268 270 273 276
234 238 239 240 240 239 239 236 238 239 240 241 241 239 238 238 236 236 236 236 236 237 237 237 238 240 242 244 245 246 248 249 251 252 254 256 257 260 262 265 268 270 273 276
234 238 241 242 242 242 240 237 238 239 240 241 241 238 237 236 235 235 236 236 236 237 238 239 240 242 243 244 246 247 249 249 251 252 254 256 258 260 263 265 268 270 273 276
237 239 241 242 243 244 241 240 240 242 242 243 243 241 238 237 236 237 238 239 239 240 240 241 241 242 244 245 246 247 249 249 251 252 254 256 258 261 264 265 268 270 273 276
241 242 243 242 242 242 241 242 242 244 244 243 244 242 241 240 239 238 240 241 242 242 241 241 241 243 245 245 246 247 248 249 250 252 254 256 259 262 264 266 268 271 274 276
244 245 245 243 243 243 244 244 243 243 243 243 244 242 241 241 241 240 241 243 243 243 242 240 241 243 245 246 247 248 248 249 251 252 254 257 259 263 266 267 270 273 275 277
246 247 246 245 245 245 245 245 243 243 243 244 245 243 241 240 242 242 242 243 244 244 243 241 241 243 245 247 248 249 250 251 252 254 256 259 261 263 267 269 272 275 277 279
248 247 247 246 247 248 248 248 246 246 246 246 246 243 242 242 243 243 243 244 245 246 246 246 244 244 246 248 249 250 251 252 254 256 257 260 263 266 268 271 273 276 278 279
250 246 246 245 244 245 247 248 248 247 247 246 246 245 244 245 244 244 245 246 248 249 250 250 249 248 248 250 250 251 252 253 254 256 258 260 263 266 269 272 275 277 279 279
249 248 248 247 245 246 246 247 248 249 248 247 247 247 247 247 247 246 247 248 249 250 252 254 253 252 251 251 251 251 252 252 254 256 259 261 264 267 270 272 275 278 279 280
246 248 249 247 246 247 247 248 248 248 248 248 248 248 248 249 250 249 248 248 249 251 252 254 254 253 252 251 251 252 253 255 256 257 260 263 266 268 270 272 274 276 279 280
Height
5614 5619 5624 5629 5634 5639 5643 5648 5653 5657 5660 5664 5669 5674 5680 5684 5688 5693 5698 5703 5707 5712 5715 5719 5723 5727 5730 5734 5737 5739 5742 5744 5746 5748 5750 5752 5754 5755 5756 5757 5758 5759 5760 5760
5607 5611 5618 5621 5625 5630 5634 5639 5644 5648 5652 5655 5660 5666 5671 5676 5681 5686 5690 5695 5699 5703 5707 5711 5715 5719 5723 5726 5729 5732 5734 5737 5739 5741 5743 5745 5746 5748 5749 5750 5751 5752 5753 5753
5599 5605 5609 5612 5617 5621 5626 5631 5636 5640 5643 5647 5651 5657 5663 5668 5672 5677 5682 5687 5691 5695 5700 5704 5707 5711 5715 5719 5722 5724 5727 5729 5732 5734 5736 5738 5739 5741 5742 5743 5744 5744 5745 5745
5590 5595 5600 5604 5609 5613 5618 5623 5627 5631 5635 5639 5644 5648 5656 5660 5665 5670 5674 5679 5683 5687 5692 5696 5700 5703 5707 5711 5714 5717 5719 5722 5724 5726 5728 5731 5732 5734 5735 5736 5736 5737 5737 5737
5583 5587 5591 5596 5602 5606 5611 5615 5619 5623 5627 5631 5636 5640 5648 5652 5657 5662 5667 5670 5675 5679 5683 5687 5691 5695 5699 5702 5706 5709 5712 5714 5717 5719 5721 5723 5725 5726 5727 5728 5728 5729 5729 5729
5576 5579 5584 5589 5594 5598 5603 5607 5611 5614 5618 5623 5629 5632 5639 5645 5650 5655 5659 5663 5667 5671 5676 5680 5683 5687 5690 5694 5697 5701 5704 5707 5710 5712 5714 5716 5717 5719 5719 5720 5721 5721 5721 5721
5569 5572 5576 5581 5585 5590 5595 5600 5604 5606 5609 5615 5622 5624 5632 5638 5643 5647 5651 5655 5659 5663 5667 5671 5675 5679 5683 5686 5690 5693 5696 5699 5702 5704 5706 5708 5710 5711 5712 5712 5712 5712 5712 5712
5563 5567 5570 5574 5578 5583 5588 5593 5597 5600 5603 5609 5613 5617 5625 5630 5634 5639 5643 5647 5651 5655 5659 5663 5667 5671 5674 5678 5682 5686 5689 5692 5694 5697 5699 5700 5702 5703 5703 5704 5704 5704 5704 5703
5557 5562 5565 5568 5572 5577 5580 5584 5590 5593 5596 5601 5605 5611 5617 5621 5626 5631 5635 5639 5643 5647 5651 5655 5659 5663 5666 5670 5674 5678 5681 5684 5686 5689 5691 5692 5693 5694 5695 5695 5695 5695 5695 5694
5552 5556 5560 5563 5566 5570 5575 5579 5582 5585 5588 5593 5598 5604 5609 5614 5618 5623 5627 5631 5634 5639 5643 5647 5650 5654 5658 5662 5666 5669 5673 5676 5678 5680 5682 5684 5685 5686 5686 5686 5686 5686 5686 5685
5546 5550 5554 5557 5560 5564 5569 5573 5575 5579 5583 5587 5591 5599 5602 5607 5611 5615 5619 5622 5626 5631 5634 5638 5642 5646 5650 5653 5657 5661 5664 5667 5670 5672 5673 5675 5676 5677 5677 5678 5678 5678 5677 5677
5541 5544 5548 5552 5555 5558 5562 5566 5570 5574 5577 5581 5585 5593 5595 5599 5603 5606 5611 5614 5618 5622 5626 5630 5634 5638 5641 5645 5649 5652 5656 5658 5661 5663 5665 5666 5667 5668 5669 5669 5669 5669 5669 5668
5536 5539 5542 5545 5550 5552 5555 5559 5563 5567 5570 5574 5578 5586 5588 5591 5595 5599 5602 5606 5610 5614 5618 5622 5625 5629 5633 5636 5640 5644 5647 5649 5652 5654 5656 5657 5658 5659 5660 5660 5661 5661 5660 5660
5531 5534 5537 5540 5543 5546 5549 5553 5556 5560 5563 5567 5572 5577 5581 5584 5587 5591 5595 5598 5602 5606 5610 5614 5617 5621 5624 5628 5632 5635 5638 5640 5643 5645 5647 5648 5649 5650 5651 5651 5652 5652 5651 5651
5526 5528 5531 5534 5537 5540 5543 5547 5550 5553 5557 5561 5566 5570 5574 5577 5580 5584 5587 5590 5594 5598 5602 5606 5609 5613 5616 5620 5623 5626 5629 5631 5634 5636 5638 5639 5640 5641 5642 5642 5643 5643 5642 5641
5520 5523 5525 5528 5531 5533 5536 5541 5544 5547 5551 5554 5558 5563 5566 5569 5572 5576 5579 5583 5586 5590 5594 5597 5601 5605 5608 5611 5614 5617 5620 5622 5624 5627 5628 5630 5631 5632 5633 5633 5633 5633 5633 5632
5516 5519 5521 5523 5526 5528 5531 5535 5538 5541 5544 5548 5551 5556 5558 5561 5564 5568 5571 5575 5578 5582 5585 5589 5592 5596 5599 5603 5605 5608 5611 5613 5615 5617 5619 5621 5622 5623 5624 5624 5624 5624 5623 5622
5512 5514 5516 5518 5521 5523 5529 5530 5532 5535 5538 5541 5544 5548 5551 5554 5557 5560 5564 5567 5570 5573 5577 5580 5584 5588 5591 5594 5597 5599 5602 5604 5606 5608 5610 5611 5613 5614 5614 5615 5615 5614 5614 5613
5507 5509 5511 5513 5515 5518 5522 5524 5526 5528 5532 5534 5537 5540 5543 5546 5549 5553 5556 5559 5563 5566 5569 5572 5576 5579 5582 5585 5588 5591 5593 5595 5597 5599 5601 5602 5603 5604 5605 5605 5605 5605 5604 5604
5502 5504 5506 5508 5509 5512 5517 5519 5520 5523 5525 5528 5530 5533 5536 5539 5543 5547 5549 5552 5555 5558 5561 5564 5568 5571 5574 5577 5580 5583 5585 5587 5588 5590 5591 5593 5594 5595 5595 5596 5596 5595 5595 5594
5497 5499 5500 5502 5504 5507 5511 5512 5515 5519 5521 5522 5524 5526 5529 5533 5536 5540 5542 5544 5547 5550 5553 5556 5560 5563 5566 5568 5571 5574 5576 5578 5579 5580 5582 5583 5584 5585 5586 5586 5586 5586 5585 5584
5492 5494 5495 5497 5499 5504 5505 5506 5509 5511 5513 5515 5518 5520 5523 5526 5529 5531 5534 5537 5539 5542 5545 5548 5551 5554 5557 5560 5563 5565 5567 5568 5570 5572 5573 5574 5575 5576 5576 5577 5576 5576 5575 5575
5487 5489 5490 5493 5496 5497 5498 5500 5502 5505 5507 5509 5512 5514 5516 5519 5522 5524 5527 5530 5532 5535 5538 5541 5543 5546 5549 5551 5554 5556 5558 5560 5561 5563 5564 5565 5566 5567 5567 5567 5567 5567 5566 5565
5482 5483 5485 5487 5489 5491 5492 5494 5496 5498 5500 5503 5505 5507 5510 5512 5514 5517 5520 5523 5525 5528 5530 5533 5535 5538 5540 5543 5545 5547 5549 5551 5552 5554 5555 5556 5557 5557 5558 5558 5557 5557 5556 5555
5478 5478 5480 5481 5483 5485 5486 5488 5490 5492 5494 5496 5498 5501 5503 5505 5507 5510 5512 5515 5517 5520 5522 5524 5526 5529 5531 5533 5536 5538 5539 5541 5543 5544 5546 5547 5547 5548 5548 5548 5548 5547 5546 5545
5473 5474 5475 5477 5478 5480 5481 5483 5484 5486 5488 5490 5492 5494 5497 5499 5501 5503 5505 5507 5509 5512 5514 5516 5518 5520 5522 5524 5526 5528 5530 5532 5534 5535 5537 5538 5538 5538 5539 5539 5538 5537 5537 5536